FLOCK 3P-50 (42029 NORAD) Tracking and Keplerian Element Data

This shows tracking and keplerian element data for the satellite.

Feedback or suggestion? Click here.




ElementValue
Catalog42029
NameFLOCK 3P-50
Epoch Orbit5461
Epoch Day45.60788445
Epoch Year2018
RAAN111.2223
Inclination97.4666
Eccentricity0.0009696
Argument of Perigee84.788
Mean Anonmoly275.4463
Mean Motion15.2388641
Decay Rate1.761E-05
L11 42029U 17008CK 18045.60788445 .00001761 00000-0 75856-4 0 9993
L22 42029 97.4666 111.2223 0009696 84.7880 275.4463 15.23886410 54619

Live tracking and technical data element details for FLOCK 3P-50 (NORAD 42029). FLOCK 3P-50 can be tracked NOW for your location showing map with azimuth and elevation plus other details from your city location.

Track the satellite on the map from your city or location and see movement details for azimuth, elevation, latitude, longitude, range, height, and movement on the map or in text.







IsCatalogInMostPopularTable: catalog: 42029, numindb: 143
Update: records affected: 1



GetName: 42029 FLOCK 3P-50

Hit Count: updated at: Mon, 12 Nov 2018 17:57:10 GMT